Showing default

COSMOS 2339, 24727

Orbit data source: Space-Track

COSMOS 2339, 24727 is a payload satellite owned by VKS (CIS) in LEO that was launched on Fri, 14 Feb 1997 UTC via a TSIKLON-3 launch vehicle from the Plesetsk Missile And Space Complex (PKMTR). Payload-class satellites include a variety of spacecraft equipped with specific instruments for various scientific and technological missions. These include communications satellites like Starlink; space stations such as the ISS; scientific satellites like the Hubble; Earth observation satellites from companies like Planet Labs, Umbra, and HawkEye 360; GPS; miniature CubeSats for education and research; and military/defense satellites.

Loading next visibility...
Identifier
24727, 1997-006C
Orbit
LEO
Country
Flag of CISCIS
Related business
Manufacturer
NPO PM
Mission
Non-operational Defense Communications
Bus & Motor
STRELA-3, Unknown motor
Mass
225 kg wet, 225 kg dry
Launch date (UTC)
1997-02-14 (29 years ago)
Launch vehicle
TSIKLON-3
Launch site
Plesetsk Missile And Space Complex (PKMTR)
Object type
Payload
Rocket body
Debris
Shape & HBR
Cyl + 1 Ant, 3.5 m
Radar Cross Section
1.583 m², Large (>1 m²)

Expand to show TLE details & history
Last TLE update: 14 hours ago

TLE from 14 hours ago
0 COSMOS 2339
1 24727U 97006C   26127.90917663  .00000034  00000-0  13101-3 0  9999
2 24727  82.6018 280.9554 0001535 105.2400  26.2047 12.62379478346494
Epoch: 2026-05-07T21:49Z
TLE epoch observation values (Epoch: 2026-05-07T21:49:12.860Z)
Latitude
48.10033°
Longitude
-100.37625°
Altitude
1,419.495 km
Speed
7.156 km/s
True Right ascension
06h 10m 42s
True Declination
47° 56' 38"
Sunlit
Object was in daylight at epoch
Visualization orbit readout
Latitude
Unknown
Longitude
Unknown
Altitude
Unknown
Speed
Unknown
Apparent Right ascension
Unknown
Apparent Declination
Unknown
Sunlit
N/A
Visualization observer readout
Local Sidereal Time
19:39:38
Azimuth
Unknown
Elevation
Unknown
Doppler factor
Unknown
Orbital elements
Apogee altitude
1,411.654 km
Perigee altitude
1,409.263 km
Semi-major axis
7,788.595 km
Eccentricity
0.00015
Inclination
82.6018°
RAAN
280.9554°
Arg. of periapsis
105.24°
True anomaly
26.21247°
Mean anomaly
26.2047°
Eccentric anomaly
26.20858°
Mean motion
3.15758 °/min
Orbital period
114.01 mins
BSTAR
0.00013101
Loading maneuver chart data...
Computing Atmospheric mass density...
Loading historical data...
Loading historical data...
Loading historical data...
Loading historical data...
Loading historical data...
Loading historical data...
Loading historical data...

Documentation

Showing up to 5 results
|